Year,Month,Day,Hour,Minute,Value (Times are PST for temperature in C)
2015,06,26,00,00,17.30
2015,06,26,00,01,17.30
2015,06,26,00,02,17.30
2015,06,26,00,03,17.30
2015,06,26,00,04,17.30
2015,06,26,00,05,17.20
2015,06,26,00,06,17.20
2015,06,26,00,07,17.20
2015,06,26,00,08,17.20
2015,06,26,00,09,17.20
2015,06,26,00,10,17.20
2015,06,26,00,11,17.10
2015,06,26,00,12,17.10
2015,06,26,00,13,17.10
2015,06,26,00,14,17.10
2015,06,26,00,15,17.10
2015,06,26,00,16,17.10
2015,06,26,00,17,17.10
2015,06,26,00,18,17.10
2015,06,26,00,19,17.10
2015,06,26,00,20,17.10
2015,06,26,00,21,17.10
2015,06,26,00,22,17.10
2015,06,26,00,23,17.10
2015,06,26,00,24,17.00
2015,06,26,00,25,17.00
2015,06,26,00,26,17.00
2015,06,26,00,27,17.00
2015,06,26,00,28,16.90
2015,06,26,00,29,16.90
2015,06,26,00,30,16.90
2015,06,26,00,31,16.90
2015,06,26,00,32,16.90
2015,06,26,00,33,16.90
2015,06,26,00,34,16.90
2015,06,26,00,35,16.80
2015,06,26,00,36,16.80
2015,06,26,00,37,16.80
2015,06,26,00,38,16.80
2015,06,26,00,39,16.80
2015,06,26,00,40,16.80
2015,06,26,00,41,16.80
2015,06,26,00,42,16.80
2015,06,26,00,43,16.80
2015,06,26,00,44,16.80
2015,06,26,00,45,16.80
2015,06,26,00,46,16.80
2015,06,26,00,47,16.80
2015,06,26,00,48,16.70
2015,06,26,00,49,16.70
2015,06,26,00,50,16.70
2015,06,26,00,51,16.70
2015,06,26,00,52,16.70
2015,06,26,00,53,16.60
2015,06,26,00,54,16.60
2015,06,26,00,55,16.60
2015,06,26,00,56,16.60
2015,06,26,00,57,16.60
2015,06,26,00,58,16.60
2015,06,26,00,59,16.50
2015,06,26,01,00,16.50
2015,06,26,01,01,16.50
2015,06,26,01,02,16.50
2015,06,26,01,03,16.50
2015,06,26,01,04,16.50
2015,06,26,01,05,16.50
2015,06,26,01,06,16.50
2015,06,26,01,07,16.40
2015,06,26,01,08,16.40
2015,06,26,01,09,16.40
2015,06,26,01,10,16.40
2015,06,26,01,11,16.40
2015,06,26,01,12,16.40
2015,06,26,01,13,16.40
2015,06,26,01,14,16.40
2015,06,26,01,15,16.40
2015,06,26,01,16,16.40
2015,06,26,01,17,16.40
2015,06,26,01,18,16.40
2015,06,26,01,19,16.40
2015,06,26,01,20,16.40
2015,06,26,01,21,16.40
2015,06,26,01,22,16.40
2015,06,26,01,23,16.40
2015,06,26,01,24,16.40
2015,06,26,01,25,16.40
2015,06,26,01,26,16.40
2015,06,26,01,27,16.40
2015,06,26,01,28,16.40
2015,06,26,01,29,16.40
2015,06,26,01,30,16.40
2015,06,26,01,31,16.40
2015,06,26,01,32,16.40
2015,06,26,01,33,16.40
2015,06,26,01,34,16.40
2015,06,26,01,35,16.40
2015,06,26,01,36,16.40
2015,06,26,01,37,16.40
2015,06,26,01,38,16.40
2015,06,26,01,39,16.40
2015,06,26,01,40,16.40
2015,06,26,01,41,16.40
2015,06,26,01,42,16.40
2015,06,26,01,43,16.40
2015,06,26,01,44,16.30
2015,06,26,01,45,16.30
2015,06,26,01,46,16.30
2015,06,26,01,47,16.30
2015,06,26,01,48,16.30
2015,06,26,01,49,16.30
2015,06,26,01,50,16.30
2015,06,26,01,51,16.30
2015,06,26,01,52,16.30
2015,06,26,01,53,16.30
2015,06,26,01,54,16.30
2015,06,26,01,55,16.30
2015,06,26,01,56,16.30
2015,06,26,01,57,16.20
2015,06,26,01,58,16.20
2015,06,26,01,59,16.20
2015,06,26,02,00,16.20
2015,06,26,02,01,16.20
2015,06,26,02,02,16.20
2015,06,26,02,03,16.20
2015,06,26,02,04,16.20
2015,06,26,02,05,16.20
2015,06,26,02,06,16.20
2015,06,26,02,07,16.10
2015,06,26,02,08,16.10
2015,06,26,02,09,16.10
2015,06,26,02,10,16.10
2015,06,26,02,11,16.10
2015,06,26,02,12,16.10
2015,06,26,02,13,16.10
2015,06,26,02,14,16.10
2015,06,26,02,15,16.10
2015,06,26,02,16,16.10
2015,06,26,02,17,16.10
2015,06,26,02,18,16.00
2015,06,26,02,19,16.00
2015,06,26,02,20,16.00
2015,06,26,02,21,16.00
2015,06,26,02,22,16.00
2015,06,26,02,23,16.00
2015,06,26,02,24,16.00
2015,06,26,02,25,16.00
2015,06,26,02,26,16.00
2015,06,26,02,27,16.00
2015,06,26,02,28,15.90
2015,06,26,02,29,15.90
2015,06,26,02,30,15.90
2015,06,26,02,31,15.90
2015,06,26,02,32,15.90
2015,06,26,02,33,15.90
2015,06,26,02,34,15.90
2015,06,26,02,35,15.90
2015,06,26,02,36,15.90
2015,06,26,02,37,15.90
2015,06,26,02,38,15.90
2015,06,26,02,39,15.90
2015,06,26,02,40,15.80
2015,06,26,02,41,15.80
2015,06,26,02,42,15.80
2015,06,26,02,43,15.80
2015,06,26,02,44,15.80
2015,06,26,02,45,15.80
2015,06,26,02,46,15.80
2015,06,26,02,47,15.80
2015,06,26,02,48,15.80
2015,06,26,02,49,15.80
2015,06,26,02,50,15.80
2015,06,26,02,51,15.80
2015,06,26,02,52,15.80
2015,06,26,02,53,15.80
2015,06,26,02,54,15.80
2015,06,26,02,55,15.80
2015,06,26,02,56,15.70
2015,06,26,02,57,15.70
2015,06,26,02,58,15.70
2015,06,26,02,59,15.70
2015,06,26,03,00,15.70
2015,06,26,03,01,15.70
2015,06,26,03,02,15.60
2015,06,26,03,06,15.60
2015,06,26,03,07,15.50
2015,06,26,03,08,15.50
2015,06,26,03,09,15.50
2015,06,26,03,10,15.50
2015,06,26,03,11,15.50
2015,06,26,03,12,15.50
2015,06,26,03,13,15.50
2015,06,26,03,14,15.50
2015,06,26,03,15,15.50
2015,06,26,03,16,15.40
2015,06,26,03,17,15.40
2015,06,26,03,18,15.40
2015,06,26,03,19,15.40
2015,06,26,03,20,15.40
2015,06,26,03,21,15.40
2015,06,26,03,22,15.40
2015,06,26,03,23,15.40
2015,06,26,03,24,15.40
2015,06,26,03,25,15.40
2015,06,26,03,26,15.40
2015,06,26,03,27,15.40
2015,06,26,03,28,15.40
2015,06,26,03,29,15.40
2015,06,26,03,30,15.30
2015,06,26,03,31,15.30
2015,06,26,03,32,15.30
2015,06,26,03,33,15.30
2015,06,26,03,34,15.30
2015,06,26,03,35,15.30
2015,06,26,03,36,15.30
2015,06,26,03,37,15.30
2015,06,26,03,38,15.30
2015,06,26,03,39,15.30
2015,06,26,03,40,15.30
2015,06,26,03,41,15.30
2015,06,26,03,42,15.30
2015,06,26,03,43,15.30
2015,06,26,03,44,15.30
2015,06,26,03,45,15.30
2015,06,26,03,46,15.30
2015,06,26,03,47,15.30
2015,06,26,03,48,15.30
2015,06,26,03,49,15.30
2015,06,26,03,50,15.30
2015,06,26,03,51,15.30
2015,06,26,03,52,15.30
2015,06,26,03,53,15.20
2015,06,26,03,54,15.20
2015,06,26,03,55,15.20
2015,06,26,03,56,15.20
2015,06,26,03,57,15.20
2015,06,26,03,58,15.10
2015,06,26,03,59,15.10
2015,06,26,04,00,15.10
2015,06,26,04,01,15.10
2015,06,26,04,02,15.10
2015,06,26,04,03,15.00
2015,06,26,04,04,15.00
2015,06,26,04,05,15.00
2015,06,26,04,06,15.00
2015,06,26,04,07,15.00
2015,06,26,04,08,15.00
2015,06,26,04,09,15.00
2015,06,26,04,10,15.00
2015,06,26,04,11,15.00
2015,06,26,04,12,15.00
2015,06,26,04,13,15.00
2015,06,26,04,14,15.00
2015,06,26,04,15,15.00
2015,06,26,04,16,15.00
2015,06,26,04,17,15.00
2015,06,26,04,18,15.00
2015,06,26,04,19,15.00
2015,06,26,04,20,15.00
2015,06,26,04,21,15.00
2015,06,26,04,22,15.00
2015,06,26,04,23,15.00
2015,06,26,04,24,14.90
2015,06,26,04,25,14.90
2015,06,26,04,26,14.90
2015,06,26,04,27,14.90
2015,06,26,04,28,14.90
2015,06,26,04,29,14.90
2015,06,26,04,30,14.90
2015,06,26,04,31,14.90
2015,06,26,04,32,14.90
2015,06,26,04,33,14.90
2015,06,26,04,34,14.80
2015,06,26,04,35,14.90
2015,06,26,04,36,14.90
2015,06,26,04,37,14.90
2015,06,26,04,38,14.90
2015,06,26,04,39,14.80
2015,06,26,04,40,14.80
2015,06,26,04,41,14.80
2015,06,26,04,42,14.80
2015,06,26,04,43,14.80
2015,06,26,04,44,14.70
2015,06,26,04,45,14.70
2015,06,26,04,46,14.70
2015,06,26,04,47,14.70
2015,06,26,04,48,14.70
2015,06,26,04,49,14.70
2015,06,26,04,50,14.70
2015,06,26,04,51,14.60
2015,06,26,04,52,14.60
2015,06,26,04,53,14.60
2015,06,26,04,54,14.60
2015,06,26,04,55,14.60
2015,06,26,04,56,14.60
2015,06,26,04,57,14.60
2015,06,26,04,58,14.60
2015,06,26,04,59,14.60
2015,06,26,05,00,14.60
2015,06,26,05,01,14.60
2015,06,26,05,02,14.50
2015,06,26,05,03,14.50
2015,06,26,05,04,14.50
2015,06,26,05,05,14.50
2015,06,26,05,06,14.50
2015,06,26,05,07,14.50
2015,06,26,05,08,14.50
2015,06,26,05,09,14.50
2015,06,26,05,10,14.50
2015,06,26,05,11,14.50
2015,06,26,05,12,14.50
2015,06,26,05,13,14.50
2015,06,26,05,14,14.60
2015,06,26,05,15,14.60
2015,06,26,05,16,14.60
2015,06,26,05,17,14.60
2015,06,26,05,18,14.60
2015,06,26,05,19,14.60
2015,06,26,05,20,14.60
2015,06,26,05,21,14.60
2015,06,26,05,22,14.60
2015,06,26,05,23,14.60
2015,06,26,05,24,14.60
2015,06,26,05,25,14.60
2015,06,26,05,26,14.60
2015,06,26,05,27,14.60
2015,06,26,05,28,14.50
2015,06,26,05,29,14.50
2015,06,26,05,30,14.50
2015,06,26,05,31,14.50
2015,06,26,05,32,14.50
2015,06,26,05,33,14.50
2015,06,26,05,34,14.50
2015,06,26,05,35,14.50
2015,06,26,05,36,14.50
2015,06,26,05,37,14.50
2015,06,26,05,38,14.50
2015,06,26,05,39,14.50
2015,06,26,05,40,14.40
2015,06,26,05,41,14.40
2015,06,26,05,42,14.40
2015,06,26,05,43,14.40
2015,06,26,05,44,14.40
2015,06,26,05,45,14.40
2015,06,26,05,46,14.30
2015,06,26,05,47,14.30
2015,06,26,05,48,14.30
2015,06,26,05,49,14.30
2015,06,26,05,50,14.30
2015,06,26,05,51,14.30
2015,06,26,05,52,14.30
2015,06,26,05,53,14.30
2015,06,26,05,54,14.30
2015,06,26,05,55,14.30
2015,06,26,05,56,14.30
2015,06,26,05,57,14.40
2015,06,26,05,58,14.40
2015,06,26,05,59,14.40
2015,06,26,06,00,14.40
2015,06,26,06,01,14.40
2015,06,26,06,02,14.40
2015,06,26,06,03,14.40
2015,06,26,06,04,14.40
2015,06,26,06,05,14.40
2015,06,26,06,06,14.40
2015,06,26,06,07,14.40
2015,06,26,06,08,14.40
2015,06,26,06,09,14.40
2015,06,26,06,10,14.40
2015,06,26,06,11,14.40
2015,06,26,06,12,14.40
2015,06,26,06,13,14.40
2015,06,26,06,14,14.40
2015,06,26,06,15,14.40
2015,06,26,06,16,14.40
2015,06,26,06,17,14.40
2015,06,26,06,18,14.40
2015,06,26,06,19,14.40
2015,06,26,06,20,14.40
2015,06,26,06,21,14.40
2015,06,26,06,22,14.50
2015,06,26,06,23,14.50
2015,06,26,06,24,14.50
2015,06,26,06,25,14.50
2015,06,26,06,26,14.60
2015,06,26,06,27,14.60
2015,06,26,06,28,14.60
2015,06,26,06,29,14.60
2015,06,26,06,30,14.60
2015,06,26,06,31,14.60
2015,06,26,06,32,14.60
2015,06,26,06,33,14.60
2015,06,26,06,34,14.60
2015,06,26,06,35,14.70
2015,06,26,06,36,14.70
2015,06,26,06,37,14.80
2015,06,26,06,38,14.80
2015,06,26,06,39,14.80
2015,06,26,06,40,14.90
2015,06,26,06,41,14.90
2015,06,26,06,42,14.90
2015,06,26,06,43,15.00
2015,06,26,06,44,15.00
2015,06,26,06,45,15.00
2015,06,26,06,46,15.00
2015,06,26,06,47,15.10
2015,06,26,06,48,15.10
2015,06,26,06,49,15.10
2015,06,26,06,50,15.10
2015,06,26,06,51,15.10
2015,06,26,06,52,15.10
2015,06,26,06,53,15.10
2015,06,26,06,54,15.10
2015,06,26,06,55,15.10
2015,06,26,06,56,15.20
2015,06,26,06,57,15.20
2015,06,26,06,58,15.20
2015,06,26,06,59,15.20
2015,06,26,07,00,15.20
2015,06,26,07,01,15.20
2015,06,26,07,02,15.20
2015,06,26,07,03,15.30
2015,06,26,07,04,15.30
2015,06,26,07,05,15.30
2015,06,26,07,06,15.40
2015,06,26,07,07,15.50
2015,06,26,07,08,15.60
2015,06,26,07,09,15.60
2015,06,26,07,10,15.70
2015,06,26,07,11,15.80
2015,06,26,07,12,15.80
2015,06,26,07,13,15.90
2015,06,26,07,14,15.90
2015,06,26,07,15,16.00
2015,06,26,07,16,16.10
2015,06,26,07,17,16.20
2015,06,26,07,18,16.20
2015,06,26,07,19,16.30
2015,06,26,07,20,16.30
2015,06,26,07,21,16.40
2015,06,26,07,22,16.40
2015,06,26,07,23,16.50
2015,06,26,07,24,16.60
2015,06,26,07,25,16.60
2015,06,26,07,26,16.70
2015,06,26,07,27,16.80
2015,06,26,07,28,16.80
2015,06,26,07,29,16.80
2015,06,26,07,30,16.90
2015,06,26,07,31,16.90
2015,06,26,07,32,16.90
2015,06,26,07,33,17.00
2015,06,26,07,34,17.10
2015,06,26,07,35,17.10
2015,06,26,07,36,17.20
2015,06,26,07,37,17.30
2015,06,26,07,38,17.40
2015,06,26,07,39,17.50
2015,06,26,07,40,17.50
2015,06,26,07,41,17.60
2015,06,26,07,42,17.70
2015,06,26,07,43,17.70
2015,06,26,07,44,17.80
2015,06,26,07,45,17.80
2015,06,26,07,46,17.80
2015,06,26,07,47,17.80
2015,06,26,07,48,17.80
2015,06,26,07,49,17.80
2015,06,26,07,50,17.80
2015,06,26,07,51,17.80
2015,06,26,07,52,17.80
2015,06,26,07,53,17.70
2015,06,26,07,54,17.70
2015,06,26,07,55,17.80
2015,06,26,07,56,17.80
2015,06,26,07,57,17.80
2015,06,26,07,58,17.80
2015,06,26,07,59,17.90
2015,06,26,08,00,17.90
2015,06,26,08,01,17.90
2015,06,26,08,02,17.90
2015,06,26,08,03,17.90
2015,06,26,08,04,17.90
2015,06,26,08,05,18.00
2015,06,26,08,06,18.10
2015,06,26,08,07,18.10
2015,06,26,08,08,18.20
2015,06,26,08,09,18.20
2015,06,26,08,10,18.30
2015,06,26,08,11,18.40
2015,06,26,08,12,18.40
2015,06,26,08,13,18.50
2015,06,26,08,14,18.50
2015,06,26,08,15,18.50
2015,06,26,08,16,18.50
2015,06,26,08,17,18.50
2015,06,26,08,18,18.50
2015,06,26,08,19,18.60
2015,06,26,08,20,18.60
2015,06,26,08,21,18.70
2015,06,26,08,22,18.70
2015,06,26,08,23,18.80
2015,06,26,08,24,18.80
2015,06,26,08,25,18.90
2015,06,26,08,26,18.90
2015,06,26,08,27,18.90
2015,06,26,08,28,18.90
2015,06,26,08,29,18.90
2015,06,26,08,30,18.90
2015,06,26,08,31,19.00
2015,06,26,08,32,18.90
2015,06,26,08,33,18.90
2015,06,26,08,34,18.90
2015,06,26,08,35,18.90
2015,06,26,08,36,18.90
2015,06,26,08,37,18.90
2015,06,26,08,38,18.90
2015,06,26,08,39,18.90
2015,06,26,08,40,19.00
2015,06,26,08,41,19.10
2015,06,26,08,42,19.20
2015,06,26,08,43,19.30
2015,06,26,08,44,19.40
2015,06,26,08,45,19.40
2015,06,26,08,46,19.40
2015,06,26,08,47,19.40
2015,06,26,08,48,19.50
2015,06,26,08,49,19.60
2015,06,26,08,50,19.60
2015,06,26,08,51,19.70
2015,06,26,08,52,19.70
2015,06,26,08,53,19.80
2015,06,26,08,54,19.80
2015,06,26,08,55,19.80
2015,06,26,08,56,19.90
2015,06,26,08,57,19.90
2015,06,26,08,58,19.90
2015,06,26,08,59,19.90
2015,06,26,09,00,19.80
2015,06,26,09,01,19.80
2015,06,26,09,02,19.80
2015,06,26,09,03,19.80
2015,06,26,09,04,19.80
2015,06,26,09,05,19.80
2015,06,26,09,06,19.80
2015,06,26,09,07,19.90
2015,06,26,09,08,20.00
2015,06,26,09,09,20.10
2015,06,26,09,10,20.20
2015,06,26,09,11,20.30
2015,06,26,09,12,20.40
2015,06,26,09,13,20.60
2015,06,26,09,14,20.60
2015,06,26,09,15,20.70
2015,06,26,09,16,20.80
2015,06,26,09,17,20.80
2015,06,26,09,18,20.80
2015,06,26,09,19,20.90
2015,06,26,09,20,21.00
2015,06,26,09,21,21.10
2015,06,26,09,22,21.20
2015,06,26,09,23,21.40
2015,06,26,09,24,21.50
2015,06,26,09,25,21.60
2015,06,26,09,26,21.80
2015,06,26,09,27,21.90
2015,06,26,09,28,21.90
2015,06,26,09,29,22.00
2015,06,26,09,30,22.10
2015,06,26,09,31,22.20
2015,06,26,09,32,22.30
2015,06,26,09,33,22.40
2015,06,26,09,34,22.40
2015,06,26,09,35,22.50
2015,06,26,09,36,22.50
2015,06,26,09,37,22.50
2015,06,26,09,38,22.50
2015,06,26,09,39,22.50
2015,06,26,09,40,22.40
2015,06,26,09,41,22.40
2015,06,26,09,42,22.40
2015,06,26,09,43,22.40
2015,06,26,09,44,22.40
2015,06,26,09,45,22.30
2015,06,26,09,46,22.30
2015,06,26,09,47,22.30
2015,06,26,09,48,22.30
2015,06,26,09,49,22.30
2015,06,26,09,50,22.30
2015,06,26,09,51,22.30
2015,06,26,09,52,22.40
2015,06,26,09,53,22.50
2015,06,26,09,54,22.50
2015,06,26,09,55,22.50
2015,06,26,09,56,22.50
2015,06,26,09,57,22.50
2015,06,26,09,58,22.50
2015,06,26,09,59,22.60
2015,06,26,10,00,22.60
2015,06,26,10,01,22.60
2015,06,26,10,02,22.70
2015,06,26,10,03,22.70
2015,06,26,10,04,22.80
2015,06,26,10,05,22.80
2015,06,26,10,06,22.90
2015,06,26,10,07,22.90
2015,06,26,10,08,22.90
2015,06,26,10,09,23.00
2015,06,26,10,10,23.10
2015,06,26,10,11,23.20
2015,06,26,10,12,23.20
2015,06,26,10,13,23.20
2015,06,26,10,14,23.20
2015,06,26,10,15,23.20
2015,06,26,10,16,23.20
2015,06,26,10,17,23.20
2015,06,26,10,18,23.30
2015,06,26,10,19,23.30
2015,06,26,10,20,23.40
2015,06,26,10,21,23.50
2015,06,26,10,22,23.70
2015,06,26,10,23,23.70
2015,06,26,10,24,23.70
2015,06,26,10,25,23.70
2015,06,26,10,26,23.70
2015,06,26,10,27,23.70
2015,06,26,10,28,23.80
2015,06,26,10,29,23.80
2015,06,26,10,30,23.80
2015,06,26,10,31,23.80
2015,06,26,10,32,23.80
2015,06,26,10,33,23.80
2015,06,26,10,34,23.90
2015,06,26,10,35,23.90
2015,06,26,10,36,23.90
2015,06,26,10,37,24.00
2015,06,26,10,38,24.00
2015,06,26,10,39,24.00
2015,06,26,10,40,24.00
2015,06,26,10,41,24.00
2015,06,26,10,42,23.90
2015,06,26,10,43,23.90
2015,06,26,10,44,23.90
2015,06,26,10,45,23.80
2015,06,26,10,46,23.80
2015,06,26,10,47,23.90
2015,06,26,10,48,23.90
2015,06,26,10,49,24.00
2015,06,26,10,50,24.00
2015,06,26,10,51,24.10
2015,06,26,10,52,24.10
2015,06,26,10,53,24.20
2015,06,26,10,54,24.20
2015,06,26,10,55,24.30
2015,06,26,10,56,24.30
2015,06,26,10,57,24.40
2015,06,26,10,58,24.40
2015,06,26,10,59,24.50
2015,06,26,11,00,24.50
2015,06,26,11,01,24.50
2015,06,26,11,02,24.70
2015,06,26,11,03,24.80
2015,06,26,11,04,24.90
2015,06,26,11,05,25.00
2015,06,26,11,06,25.10
2015,06,26,11,07,25.10
2015,06,26,11,08,25.10
2015,06,26,11,09,25.10
2015,06,26,11,10,25.20
2015,06,26,11,11,25.20
2015,06,26,11,12,25.20
2015,06,26,11,13,25.20
2015,06,26,11,14,25.30
2015,06,26,11,15,25.30
2015,06,26,11,16,25.30
2015,06,26,11,17,25.40
2015,06,26,11,18,25.40
2015,06,26,11,19,25.40
2015,06,26,11,20,25.50
2015,06,26,11,21,25.60
2015,06,26,11,22,25.70
2015,06,26,11,23,25.80
2015,06,26,11,24,25.80
2015,06,26,11,25,25.90
2015,06,26,11,26,26.00
2015,06,26,11,27,26.00
2015,06,26,11,28,26.10
2015,06,26,11,29,26.20
2015,06,26,11,30,26.30
2015,06,26,11,31,26.40
2015,06,26,11,32,26.50
2015,06,26,11,33,26.60
2015,06,26,11,34,26.60
2015,06,26,11,35,26.60
2015,06,26,11,36,26.60
2015,06,26,11,37,26.60
2015,06,26,11,38,26.60
2015,06,26,11,39,26.60
2015,06,26,11,40,26.70
2015,06,26,11,41,26.80
2015,06,26,11,42,26.90
2015,06,26,11,43,27.10
2015,06,26,11,44,27.20
2015,06,26,11,45,27.20
2015,06,26,11,46,27.20
2015,06,26,11,47,27.20
2015,06,26,11,48,27.10
2015,06,26,11,49,27.10
2015,06,26,11,50,27.20
2015,06,26,11,51,27.30
2015,06,26,11,52,27.40
2015,06,26,11,53,27.40
2015,06,26,11,54,27.40
2015,06,26,11,55,27.30
2015,06,26,11,56,27.40
2015,06,26,11,57,27.40
2015,06,26,11,58,27.30
2015,06,26,11,59,27.30
2015,06,26,12,00,27.30
2015,06,26,12,01,27.30
2015,06,26,12,02,27.30
2015,06,26,12,03,27.30
2015,06,26,12,04,27.30
2015,06,26,12,05,27.30
2015,06,26,12,06,27.30
2015,06,26,12,07,27.30
2015,06,26,12,08,27.30
2015,06,26,12,09,27.40
2015,06,26,12,10,27.50
2015,06,26,12,11,27.50
2015,06,26,12,12,27.60
2015,06,26,12,13,27.60
2015,06,26,12,14,27.70
2015,06,26,12,15,27.70
2015,06,26,12,16,27.70
2015,06,26,12,17,27.80
2015,06,26,12,18,27.90
2015,06,26,12,19,28.00
2015,06,26,12,20,28.10
2015,06,26,12,21,28.10
2015,06,26,12,22,28.10
2015,06,26,12,23,28.10
2015,06,26,12,24,28.10
2015,06,26,12,25,28.10
2015,06,26,12,26,28.20
2015,06,26,12,27,28.20
2015,06,26,12,28,28.20
2015,06,26,12,29,28.20
2015,06,26,12,30,28.20
2015,06,26,12,31,28.20
2015,06,26,12,32,28.30
2015,06,26,12,33,28.40
2015,06,26,12,34,28.60
2015,06,26,12,35,28.70
2015,06,26,12,36,28.80
2015,06,26,12,37,28.80
2015,06,26,12,38,28.80
2015,06,26,12,39,28.90
2015,06,26,12,40,29.00
2015,06,26,12,41,29.00
2015,06,26,12,42,29.00
2015,06,26,12,43,28.90
2015,06,26,12,44,28.80
2015,06,26,12,45,28.80
2015,06,26,12,46,28.80
2015,06,26,12,47,28.80
2015,06,26,12,48,28.80
2015,06,26,12,49,28.80
2015,06,26,12,50,28.80
2015,06,26,12,51,28.80
2015,06,26,12,52,28.90
2015,06,26,12,53,29.00
2015,06,26,12,54,29.00
2015,06,26,12,55,29.10
2015,06,26,12,56,29.10
2015,06,26,12,57,29.10
2015,06,26,12,58,29.10
2015,06,26,12,59,29.10
2015,06,26,13,00,29.10
2015,06,26,13,01,29.00
2015,06,26,13,02,28.80
2015,06,26,13,03,28.80
2015,06,26,13,04,28.70
2015,06,26,13,05,28.70
2015,06,26,13,06,28.80
2015,06,26,13,07,28.90
2015,06,26,13,08,29.00
2015,06,26,13,09,29.00
2015,06,26,13,10,29.10
2015,06,26,13,11,29.10
2015,06,26,13,12,29.20
2015,06,26,13,13,29.20
2015,06,26,13,14,29.20
2015,06,26,13,15,29.20
2015,06,26,13,16,29.20
2015,06,26,13,17,29.20
2015,06,26,13,18,29.20
2015,06,26,13,19,29.20
2015,06,26,13,20,29.30
2015,06,26,13,21,29.30
2015,06,26,13,22,29.30
2015,06,26,13,23,29.20
2015,06,26,13,24,29.20
2015,06,26,13,25,29.20
2015,06,26,13,26,29.30
2015,06,26,13,27,29.40
2015,06,26,13,28,29.50
2015,06,26,13,29,29.60
2015,06,26,13,30,29.60
2015,06,26,13,31,29.70
2015,06,26,13,32,29.80
2015,06,26,13,33,29.80
2015,06,26,13,34,29.80
2015,06,26,13,35,29.80
2015,06,26,13,36,29.80
2015,06,26,13,37,29.80
2015,06,26,13,38,29.80
2015,06,26,13,39,29.80
2015,06,26,13,40,29.70
2015,06,26,13,41,29.60
2015,06,26,13,42,29.50
2015,06,26,13,43,29.40
2015,06,26,13,44,29.40
2015,06,26,13,45,29.50
2015,06,26,13,46,29.60
2015,06,26,13,47,29.70
2015,06,26,13,48,29.70
2015,06,26,13,49,29.80
2015,06,26,13,50,29.80
2015,06,26,13,51,29.80
2015,06,26,13,52,29.80
2015,06,26,13,53,29.80
2015,06,26,13,54,29.80
2015,06,26,13,55,29.80
2015,06,26,13,56,29.90
2015,06,26,13,57,29.90
2015,06,26,13,58,29.90
2015,06,26,13,59,29.90
2015,06,26,14,00,30.00
2015,06,26,14,01,30.10
2015,06,26,14,02,30.30
2015,06,26,14,03,30.40
2015,06,26,14,04,30.40
2015,06,26,14,05,30.50
2015,06,26,14,06,30.60
2015,06,26,14,07,30.70
2015,06,26,14,08,30.70
2015,06,26,14,09,30.70
2015,06,26,14,10,30.60
2015,06,26,14,11,30.60
2015,06,26,14,12,30.60
2015,06,26,14,13,30.50
2015,06,26,14,14,30.50
2015,06,26,14,15,30.50
2015,06,26,14,16,30.60
2015,06,26,14,17,30.70
2015,06,26,14,18,30.80
2015,06,26,14,19,30.80
2015,06,26,14,20,30.80
2015,06,26,14,21,30.90
2015,06,26,14,22,30.90
2015,06,26,14,23,30.90
2015,06,26,14,24,31.00
2015,06,26,14,25,31.10
2015,06,26,14,26,31.10
2015,06,26,14,27,31.20
2015,06,26,14,28,31.30
2015,06,26,14,29,31.40
2015,06,26,14,30,31.40
2015,06,26,14,31,31.40
2015,06,26,14,32,31.50
2015,06,26,14,33,31.60
2015,06,26,14,34,31.40
2015,06,26,14,35,31.30
2015,06,26,14,36,31.30
2015,06,26,14,37,31.40
2015,06,26,14,38,31.40
2015,06,26,14,39,31.40
2015,06,26,14,40,31.40
2015,06,26,14,41,31.30
2015,06,26,14,42,31.20
2015,06,26,14,43,31.10
2015,06,26,14,44,31.10
2015,06,26,14,45,31.10
2015,06,26,14,46,31.00
2015,06,26,14,47,31.00
2015,06,26,14,48,31.00
2015,06,26,14,49,31.00
2015,06,26,14,50,31.10
2015,06,26,14,51,31.20
2015,06,26,14,52,31.20
2015,06,26,14,53,31.20
2015,06,26,14,54,31.20
2015,06,26,14,55,31.20
2015,06,26,14,56,31.20
2015,06,26,14,57,31.30
2015,06,26,14,58,31.30
2015,06,26,14,59,31.30
2015,06,26,15,00,31.30
2015,06,26,15,01,31.30
2015,06,26,15,02,31.40
2015,06,26,15,03,31.30
2015,06,26,15,04,31.30
2015,06,26,15,05,31.20
2015,06,26,15,06,31.20
2015,06,26,15,07,31.30
2015,06,26,15,08,31.40
2015,06,26,15,09,31.50
2015,06,26,15,10,31.50
2015,06,26,15,11,31.60
2015,06,26,15,12,31.60
2015,06,26,15,13,31.60
2015,06,26,15,14,31.50
2015,06,26,15,15,31.50
2015,06,26,15,16,31.40
2015,06,26,15,17,31.40
2015,06,26,15,18,31.50
2015,06,26,15,19,31.60
2015,06,26,15,20,31.70
2015,06,26,15,21,31.80
2015,06,26,15,22,31.80
2015,06,26,15,23,31.70
2015,06,26,15,24,31.70
2015,06,26,15,25,31.60
2015,06,26,15,26,31.60
2015,06,26,15,27,31.70
2015,06,26,15,28,31.70
2015,06,26,15,29,31.60
2015,06,26,15,30,31.50
2015,06,26,15,31,31.50
2015,06,26,15,32,31.50
2015,06,26,15,33,31.50
2015,06,26,15,34,31.60
2015,06,26,15,35,31.60
2015,06,26,15,36,31.60
2015,06,26,15,37,31.50
2015,06,26,15,38,31.40
2015,06,26,15,39,31.40
2015,06,26,15,40,31.40
2015,06,26,15,41,31.40
2015,06,26,15,42,31.40
2015,06,26,15,43,31.40
2015,06,26,15,44,31.40
2015,06,26,15,45,31.40
2015,06,26,15,46,31.40
2015,06,26,15,47,31.40
2015,06,26,15,48,31.40
2015,06,26,15,49,31.50
2015,06,26,15,50,31.60
2015,06,26,15,51,31.70
2015,06,26,15,52,31.70
2015,06,26,15,53,31.70
2015,06,26,15,54,31.70
2015,06,26,15,55,31.60
2015,06,26,15,56,31.50
2015,06,26,15,57,31.40
2015,06,26,15,58,31.40
2015,06,26,15,59,31.30
2015,06,26,16,00,31.30
2015,06,26,16,01,31.30
2015,06,26,16,02,31.40
2015,06,26,16,03,31.40
2015,06,26,16,04,31.50
2015,06,26,16,05,31.60
2015,06,26,16,06,31.60
2015,06,26,16,07,31.70
2015,06,26,16,08,31.60
2015,06,26,16,09,31.60
2015,06,26,16,10,31.50
2015,06,26,16,11,31.50
2015,06,26,16,12,31.40
2015,06,26,16,13,31.30
2015,06,26,16,14,31.30
2015,06,26,16,15,31.30
2015,06,26,16,16,31.40
2015,06,26,16,17,31.50
2015,06,26,16,18,31.40
2015,06,26,16,19,31.40
2015,06,26,16,20,31.40
2015,06,26,16,21,31.40
2015,06,26,16,22,31.40
2015,06,26,16,23,31.40
2015,06,26,16,24,31.50
2015,06,26,16,25,31.50
2015,06,26,16,26,31.50
2015,06,26,16,27,31.50
2015,06,26,16,28,31.50
2015,06,26,16,29,31.40
2015,06,26,16,30,31.40
2015,06,26,16,31,31.30
2015,06,26,16,32,31.40
2015,06,26,16,33,31.40
2015,06,26,16,34,31.50
2015,06,26,16,35,31.50
2015,06,26,16,36,31.50
2015,06,26,16,37,31.40
2015,06,26,16,38,31.50
2015,06,26,16,39,31.60
2015,06,26,16,40,31.70
2015,06,26,16,41,31.90
2015,06,26,16,42,31.90
2015,06,26,16,43,31.80
2015,06,26,16,44,31.70
2015,06,26,16,45,31.70
2015,06,26,16,46,31.70
2015,06,26,16,47,31.80
2015,06,26,16,48,31.80
2015,06,26,16,49,31.70
2015,06,26,16,50,31.60
2015,06,26,16,51,31.60
2015,06,26,16,52,31.50
2015,06,26,16,53,31.40
2015,06,26,16,54,31.40
2015,06,26,16,55,31.40
2015,06,26,16,56,31.40
2015,06,26,16,57,31.50
2015,06,26,16,58,31.50
2015,06,26,16,59,31.50
2015,06,26,17,00,31.40
2015,06,26,17,01,31.40
2015,06,26,17,02,31.50
2015,06,26,17,03,31.60
2015,06,26,17,04,31.60
2015,06,26,17,05,31.60
2015,06,26,17,06,31.60
2015,06,26,17,07,31.70
2015,06,26,17,08,31.70
2015,06,26,17,09,31.70
2015,06,26,17,10,31.70
2015,06,26,17,11,31.70
2015,06,26,17,12,31.70
2015,06,26,17,13,31.60
2015,06,26,17,14,31.60
2015,06,26,17,15,31.60
2015,06,26,17,16,31.60
2015,06,26,17,17,31.70
2015,06,26,17,18,31.80
2015,06,26,17,19,31.80
2015,06,26,17,20,31.70
2015,06,26,17,21,31.70
2015,06,26,17,22,31.70